Leuchars, United Kingdom

5:42 AM GMT on February 21, 2018 (GMT +0000)
Leuchars Air Base

Weather History for EGQL - September, 2013

Change the Weather History Date:

Thursday, September 12, 2013

  Actual Average Record
Temperature  
Mean Temperature 60 °F -  
Max Temperature 67 °F 57 °F 72 °F (2016)
Min Temperature 52 °F 45 °F 41 °F (1998)
Degree Days  
Heating Degree Days 6    
Growing Degree Days 10 (Base 50)    
Moisture  
Dew Point 55 °F    
Average Humidity 85    
Maximum Humidity 100    
Minimum Humidity 53    
Precipitation  
Precipitation 0.02 in - - ()
Sea Level Pressure  
Sea Level Pressure 29.96 in    
Wind  
Wind Speed 6 mph ()    
Max Wind Speed 18 mph    
Max Gust Speed -    
Visibility 5.7 miles    
Events Fog , Rain    
Averages and records for this station are not official NWS values.
T = Trace of Precipitation, MM = Missing Value Source: Averaged Metar Reports

Daily Weather History Graph

Daily Weather History Graph

Search for Another Location

Airport or City:

Trip Planner

Search our weather history database for the weather conditions in past years. The results will help you decide how hot, cold, wet, or windy it might be!

Date:

Astronomy

Sep. 12, 2013 Rise Set
Actual Time 6:36 AM BST 7:37 PM BST
Civil Twilight 5:58 AM BST 8:15 PM BST
Nautical Twilight 5:11 AM BST 9:01 PM BST
Astronomical Twilight 4:20 AM BST 9:53 PM BST
Moon 3:06 PM BST (9/12) 11:02 PM BST (9/12)
Length of Visible Light 14h 16m
Length of Day
13h 00m
Waxing Crescent, 47% of the Moon is Illuminated
Sep 12
Waxing Crescent
Sep 12
First Quarter
Sep 19
Full
Sep 27
Last Quarter
Oct 5
New

Hourly Weather History & Observations

Time (BST) Temp. Dew Point Humidity Pressure Visibility Wind Dir Wind Speed Gust Speed Precip Events Conditions
12:50 AM 56 °F 55 °F 96% 30.07 in 12 mi NW 1.2 mph - - Fog Patches of Fog
12:50 AM 57.2 °F 55.4 °F 94% 30.06 in 6.2 mi NW 1.2 mph - N/A Fog Shallow Fog
1:50 AM 53.6 °F 51.8 °F 94% 30.04 in 1.9 mi West 2.3 mph - N/A Fog Fog
2:03 AM 53.6 °F 51.8 °F 94% 30.04 in 0.4 mi WSW 3.5 mph - N/A Fog Fog
2:26 AM 53.6 °F 53.6 °F 100% 30.04 in 1.2 mi WSW 3.5 mph - N/A Fog Fog
2:50 AM 55.4 °F 53.6 °F 94% 30.04 in 2.5 mi WSW 3.5 mph - N/A   Mostly Cloudy
3:50 AM 57 °F 56 °F 95% 30.03 in 3 mi WNW 5.8 mph - -   Mist
3:50 AM 57.2 °F 55.4 °F 94% 30.01 in 3.1 mi WNW 5.8 mph - N/A   Overcast
4:50 AM 57.2 °F 55.4 °F 94% 30.01 in 6.2 mi West 3.5 mph - N/A   Mostly Cloudy
5:50 AM 55.4 °F 55.4 °F 100% 30.01 in 6.2 mi West 6.9 mph - N/A   Mostly Cloudy
6:50 AM 55 °F 54 °F 98% 30.01 in 4 mi West 5.8 mph - -   Partly Cloudy
6:50 AM 55.4 °F 55.4 °F 100% 30.01 in 6.2 mi West 5.8 mph - N/A   Mostly Cloudy
7:50 AM 55.4 °F 53.6 °F 94% 30.01 in 6.2 mi WSW 6.9 mph - N/A   Mostly Cloudy
8:33 AM 57.2 °F 53.6 °F 88% 30.01 in 6.2 mi WSW 6.9 mph - N/A   Mostly Cloudy
8:50 AM 57.2 °F 51.8 °F 82% 30.01 in 6.2 mi WSW 8.1 mph - N/A   Mostly Cloudy
9:30 AM 59.0 °F 51.8 °F 77% 30.01 in 6.2 mi WSW 6.9 mph - N/A   Mostly Cloudy
9:50 AM 60 °F 52 °F 69% 30.01 in 31 mi WSW 9.2 mph - -   Mostly Cloudy
9:50 AM 60.8 °F 51.8 °F 72% 30.01 in 6.2 mi WSW 9.2 mph - N/A   Mostly Cloudy
10:50 AM 60.8 °F 51.8 °F 72% 29.98 in 6.2 mi WSW 8.1 mph - N/A   Mostly Cloudy
11:50 AM 62.6 °F 53.6 °F 72% 29.95 in 6.2 mi SW 11.5 mph - N/A   Mostly Cloudy
12:50 PM 64 °F 51 °F 53% 29.96 in 31 mi WSW 11.5 mph - -   Mostly Cloudy
12:50 PM 64.4 °F 51.8 °F 64% 29.95 in 6.2 mi WSW 11.5 mph - N/A   Mostly Cloudy
1:50 PM 66.2 °F 51.8 °F 60% 29.92 in 6.2 mi WSW 12.7 mph - N/A   Mostly Cloudy
2:50 PM 66.2 °F 53.6 °F 64% 29.92 in 6.2 mi West 18.4 mph - N/A   Mostly Cloudy
3:50 PM 67 °F 54 °F 54% 29.89 in 28 mi WSW 10.4 mph - -   Mostly Cloudy
3:50 PM 66.2 °F 53.6 °F 64% 29.89 in 6.2 mi WSW 10.4 mph - N/A   Mostly Cloudy
4:50 PM 62.6 °F 57.2 °F 82% 29.86 in 6.2 mi SSW 11.5 mph - N/A Rain Light Rain
5:50 PM 60.8 °F 59.0 °F 94% 29.86 in 6.2 mi WSW 8.1 mph - N/A Rain Light Rain
6:50 PM 60.8 °F 59.0 °F 94% 29.86 in 6.2 mi WSW 10.4 mph - N/A Rain Light Rain
7:19 PM 60.8 °F 59.0 °F 94% 29.86 in 6.2 mi WSW 10.4 mph - N/A Rain Light Rain
7:50 PM 60.8 °F 59.0 °F 94% 29.86 in 6.2 mi WSW 10.4 mph - N/A   Overcast
8:25 PM 60.8 °F 59.0 °F 94% 29.86 in 6.2 mi West 6.9 mph - N/A   Overcast
8:50 PM 60.8 °F 59.0 °F 94% 29.86 in 6.2 mi WNW 6.9 mph - N/A   Overcast
9:50 PM 60 °F 59 °F 94% 29.89 in 12 mi WNW 4.6 mph - -   Partly Cloudy
9:50 PM 60.8 °F 59.0 °F 94% 29.89 in 6.2 mi WNW 4.6 mph - N/A   Overcast
10:50 PM 59.0 °F 57.2 °F 94% 29.89 in 6.2 mi NW 6.9 mph - N/A   Mostly Cloudy
11:50 PM 59.0 °F 57.2 °F 94% 29.92 in 6.2 mi NW 4.6 mph - N/A Rain Light Rain